Location: Wald
(31.7579°N, 86.6655°W)
Time: 00:54:15
(UTC+00:00)

deb Chang Zheng 4 - Pass Details

Date: 14 July 2020
Orbit: 603 x 626 km, 98.6° (Epoch: 12 August)

Event Time Altitude Azimuth Distance (km) Brightness Sun altitude
Rises 09:53:49 0° 9° (N) 2,868 7.7 -11.4°
Reaches altitude 10° 09:56:00 10° 8° (N) 1,964 6.8 -11.1°
Maximum altitude 10:00:14 71° 285° (WNW) 648 3.5 -10.3°
Drops below altitude 10° 10:04:29 10° 201° (SSW) 1,966 5.7 -9.5°
Enters shadow 10:05:15 - 200° (SSW) 2,283 6.0 -9.4°
